Location: Edisto_Beach
(32.4790°N, 80.3350°W)
Time: 19:55:30
(UTC-04:00)

Amateur Radio Satellites - All Passes

Search period start: 27 May 2015 19:25
Search period end: 28 May 2015 19:25
Location: Edisto_Beach, 32.4790°N, 80.3350°W

Satellite Date Start Highest point End Downlink Frequencies (MHz)
Time Altitude Azimuth
Cosmos 2491 27 May 19:29:20 19:37:33 48° 90° (E) 19:45:55 435.465 / 435.565
YUBILEINY 27 May 19:31:22 19:40:06 81° 83° (E) 19:48:49 435.215
BEESAT 3 27 May 19:37:48 19:39:31 12° 312° (NW) 19:41:04 437.485
CUTE-I 27 May 19:43:47 19:48:33 33° 263° (W) 19:53:16 437.470
RS-15 27 May 19:47:49 19:59:28 67° 246° (WSW) 20:11:27 29.354- 29.394
GOMX 1 27 May 19:59:04 20:02:19 18° 68° (ENE) 20:05:54 467.674
BRITE-PL 27 May 19:59:06 20:03:18 28° 70° (ENE) 20:07:52 437.365/2234.400
Cubesat XI-IV 27 May 20:05:39 20:09:35 20° 266° (W) 20:13:21 437.490
AIST 2 27 May 20:20:31 20:23:36 19° 308° (NW) 20:26:37 435.215
PRISM 27 May 20:21:49 20:25:58 74° 284° (WNW) 20:30:07 437.425
Cosmos 2504 27 May 20:21:57 20:23:00 11° 65° (ENE) 20:24:43 435.465 / 435.565
CINEMA 3 27 May 20:31:15 20:32:03 10° 67° (ENE) 20:33:12 145.822/145.860
M-CUBED/EXP-1 PRIME 27 May 20:38:49 20:42:04 54° 105° (ESE) 20:45:22 437.505
HO-68 27 May 20:41:17 20:48:00 46° 70° (ENE) 20:54:48 435.675
AUBIESAT-1 27 May 20:46:14 20:49:30 58° 105° (ESE) 20:52:50 437.475
STRAND 1 27 May 20:52:25 20:57:21 47° 287° (WNW) 21:02:16 437.568
DOVE 4 27 May 20:54:30 20:59:14 42° 73° (ENE) 21:04:13 437.250
CUBESAT XI-V 27 May 20:55:33 20:58:19 15° 291° (WNW) 21:00:51 437.345
CANX-2 27 May 21:08:53 21:13:05 61° 77° (ENE) 21:17:18 2200.000
CUTE 1.7 + AOD 2 27 May 21:12:19 21:16:31 60° 76° (ENE) 21:20:44 437.475
CUBEBUG 2 27 May 21:15:41 21:18:23 16° 69° (ENE) 21:21:19 437.445
Oscar 11 27 May 21:24:19 21:27:20 19° 71° (ENE) 21:30:31 145.826/435.025
AIST 1 27 May 21:25:18 21:29:31 66° 278° (W) 21:33:47
Cosmos 2491 27 May 21:27:01 21:34:41 31° 287° (WNW) 21:42:10 435.465 / 435.565
YUBILEINY 27 May 21:31:00 21:36:04 16° 277° (W) 21:40:31 435.215
SEEDS 27 May 21:33:38 21:37:53 90° 242° (WSW) 21:42:07 437.485
GOMX 1 27 May 21:35:09 21:40:01 47° 262° (W) 21:45:10 467.674
BRITE-PL 27 May 21:37:25 21:41:44 28° 266° (W) 21:46:16 437.365/2234.400
COMPASS 1 27 May 21:45:37 21:49:49 81° 258° (WSW) 21:54:01 437.405
AAUSAT CUBESAT 2 27 May 21:57:07 22:01:16 68° 259° (W) 22:05:24 437.432
UWE-3 27 May 21:59:35 22:03:53 38° 74° (ENE) 22:08:14 435.000/436.395/437.385
CINEMA 3 27 May 22:03:43 22:08:40 74° 259° (W) 22:13:44 145.822/145.860
FUNcube-1 27 May 22:07:36 22:11:44 35° 74° (ENE) 22:15:55 145.935
RS-15 27 May 22:08:40 22:10:35 10° 259° (W) 22:10:54 29.354- 29.394
Cosmos 2504 27 May 22:10:25 22:17:37 88° 83° (E) 22:24:55 435.465 / 435.565
ISS 27 May 22:17:38 22:19:48 17° 128° (SE) 22:22:03 145.825
DELFI C3 27 May 22:18:57 22:22:55 63° 77° (ENE) 22:26:55 145.870
HO-68 27 May 22:29:52 22:35:56 28° 265° (W) 22:41:48 435.675
DOVE 4 27 May 22:33:38 22:37:13 18° 269° (W) 22:40:41 437.250
HUMSAT D 27 May 22:36:01 22:39:50 32° 73° (ENE) 22:43:42 437.325/437.525
ZACube-1 27 May 22:47:59 22:52:36 75° 259° (W) 22:57:12 437.345
TIGRISAT 27 May 22:48:19 22:49:12 11° 90° (E) 22:50:24 435.000
UKube-1 27 May 22:48:35 22:52:41 45° 74° (ENE) 22:56:51 .
CUBEBUG 2 27 May 22:50:11 22:54:44 44° 262° (W) 22:59:17 437.445
DX 1 27 May 22:58:23 23:02:41 66° 76° (ENE) 23:07:02 434.975-435.025
Oscar 11 27 May 22:59:36 23:03:22 28° 264° (W) 23:07:04 145.826/435.025
UNISAT 6 27 May 23:07:09 23:10:19 20° 94° (E) 23:13:35 437.425
CUBEBUG 1 27 May 23:12:49 23:16:00 21° 71° (ENE) 23:19:18 437.445
VELOX 1 27 May 23:15:59 23:20:13 48° 74° (ENE) 23:24:31 145.980
50 SAT 27 May 23:20:02 23:23:59 60° 76° (ENE) 23:27:56 437.505
ESTCUBE 1 27 May 23:22:37 23:26:33 32° 73° (ENE) 23:30:33 437.505/2401.250
NANOSAT C BR1 27 May 23:30:00 23:32:28 15° 93° (E) 23:35:06 145.865
UWE-3 27 May 23:37:28 23:40:33 17° 268° (W) 23:43:28 435.000/436.395/437.385
QB50P2 27 May 23:38:07 23:41:16 20° 94° (E) 23:44:31 145.880/145.840
FUNcube-1 27 May 23:45:02 23:48:10 17° 267° (W) 23:51:08 145.935
PCSat 27 May 23:46:08 23:48:05 12° 105° (ESE) 23:50:22 145.827
AISAT 27 May 23:47:45 23:52:09 66° 258° (WSW) 23:56:37 437.250
SPROUT 27 May 23:49:25 23:51:26 14° 69° (ENE) 23:53:41 437.525
ANTELSAT 27 May 23:49:35 23:53:56 70° 101° (ESE) 23:58:11 437.575/2403.000
POPSAT HIP 1 27 May 23:49:46 23:53:25 27° 96° (E) 23:57:05 437.405
DUCHIFAT 1 27 May 23:50:58 23:54:35 27° 96° (E) 23:58:15 145.980
ISS 27 May 23:53:08 23:56:04 30° 322° (NW) 23:58:59 145.825
GONETS M04 28 May 00:01:06 00:08:04 27° 71° (ENE) 00:15:17
Cosmos 2504 28 May 00:08:33 00:10:13 10° 277° (W) 00:11:11 435.465 / 435.565
TISAT 1 28 May 00:08:36 00:11:09 16° 70° (ENE) 00:13:53 437.305
BUGSAT 1 28 May 00:09:51 00:13:39 31° 97° (E) 00:17:27 437.445
HUMSAT D 28 May 00:12:46 00:15:39 17° 267° (W) 00:18:23 437.325/437.525
DANDE 28 May 00:16:54 00:23:35 35° 71° (ENE) 00:28:59 436.750
TIGRISAT 28 May 00:22:09 00:26:20 47° 285° (WNW) 00:30:24 435.000
UKube-1 28 May 00:27:28 00:29:07 12° 269° (W) 00:30:29 .
QB50P1 28 May 00:33:13 00:37:30 81° 282° (WNW) 00:41:44 145.935-145.965
POLYITAN 1 28 May 00:35:46 00:40:02 74° 283° (WNW) 00:44:15 437.675
CUSAT 1 28 May 00:42:02 00:48:51 75° 80° (E) 00:53:58 437.405
UNISAT 6 28 May 00:43:28 00:47:07 26° 288° (WNW) 00:50:37 437.425
CUBEBUG 1 28 May 00:48:29 00:52:12 27° 264° (W) 00:55:54 437.445
VELOX 1 28 May 00:55:27 00:57:06 11° 269° (W) 00:58:27 145.980
ESTCUBE 1 28 May 01:00:23 01:03:31 18° 267° (W) 01:06:29 437.505/2401.250
NANOSAT C BR1 28 May 01:04:34 01:08:26 33° 287° (WNW) 01:12:13 145.865
QB50P2 28 May 01:13:35 01:17:08 25° 288° (WNW) 01:20:36 145.880/145.840
VERMONT LUNAR 28 May 01:14:27 01:17:36 53° 150° (SSE) 01:20:46 437.305
SPROUT 28 May 01:23:06 01:27:11 41° 261° (W) 01:31:18 437.525
PCSat 28 May 01:25:38 01:31:00 66° 296° (WNW) 01:36:25 145.827
POPSAT HIP 1 28 May 01:26:01 01:29:08 19° 289° (WNW) 01:32:05 437.405
ITUPSAT 1 28 May 01:26:31 01:29:50 20° 70° (ENE) 01:33:19 437.325
DUCHIFAT 1 28 May 01:27:10 01:30:14 19° 289° (WNW) 01:33:10 145.980
BEESAT 28 May 01:33:07 01:36:51 24° 71° (ENE) 01:40:41 436.000
SWISSCUBE 28 May 01:41:18 01:45:27 32° 72° (ENE) 01:49:42 437.505
TISAT 1 28 May 01:42:51 01:46:41 33° 263° (W) 01:50:31 437.305
BUGSAT 1 28 May 01:46:04 01:48:54 17° 290° (WNW) 01:51:34 437.445
PHONESAT 2.4 28 May 01:55:03 01:58:03 27° 145° (SE) 02:01:05 2401.200-2431.200
GONETS M04 28 May 01:56:55 02:05:23 54° 269° (W) 02:13:44
DANDE 28 May 02:00:23 02:06:39 31° 274° (W) 02:11:35 436.750
Oscar 19 28 May 02:08:48 02:13:15 30° 96° (E) 02:17:46 437.125/150
O/OREOS (USA 219) 28 May 02:21:29 02:25:57 82° 71° (ENE) 02:30:26 437.305
ITAMSAT 1 28 May 02:27:44 02:29:01 11° 90° (E) 02:30:42 435.822/435.867
CUSAT 1 28 May 02:28:19 02:30:14 11° 280° (W) 02:31:36 437.405
Cosmos 2499 28 May 02:36:39 02:43:25 49° 79° (E) 02:50:24 435.465 / 435.565
VERMONT LUNAR 28 May 02:52:01 02:54:55 29° 344° (NNW) 02:57:48 437.305
KKS-1 28 May 02:56:59 03:00:55 31° 72° (ENE) 03:04:54 437.445
ITUPSAT 1 28 May 03:03:13 03:07:32 33° 263° (W) 03:11:48 437.325
Gurwin Techsat 1B 28 May 03:08:43 03:13:22 31° 96° (E) 03:18:06 435.225
BEESAT 28 May 03:10:31 03:14:35 27° 264° (W) 03:18:36 436.000
BEESAT 2 28 May 03:10:45 03:14:05 24° 54° (NE) 03:17:26 435.950
SWISSCUBE 28 May 03:19:50 03:23:23 20° 266° (W) 03:26:48 437.505
SO-50 28 May 03:22:12 03:26:50 89° 118° (ESE) 03:31:39 436.795
PHONESAT 2.4 28 May 03:32:40 03:36:04 48° 338° (NNW) 03:39:28 2401.200-2431.200
Oscar 19 28 May 03:48:17 03:52:30 25° 290° (WNW) 03:56:35 437.125/150
BEESAT 3 28 May 03:57:49 04:01:52 72° 244° (WSW) 04:05:50 437.485
STARS 28 May 03:57:57 04:02:24 81° 260° (W) 04:06:52 437.465
ITAMSAT 1 28 May 04:03:52 04:09:03 67° 285° (WNW) 04:14:14 435.822/435.867
JAS-2 28 May 04:22:01 04:26:17 26° 96° (E) 04:30:51 435.910
VERMONT LUNAR 28 May 04:30:19 04:32:41 19° 1° (N) 04:35:03 437.305
Cosmos 2499 28 May 04:30:53 04:36:12 22° 273° (W) 04:41:20 435.465 / 435.565
MOZHAYETS 4 28 May 04:34:04 04:37:51 27° 72° (ENE) 04:41:42
KKS-1 28 May 04:34:25 04:37:37 18° 266° (W) 04:40:40 437.445
AIST 2 28 May 04:45:04 04:49:17 76° 61° (ENE) 04:53:24 435.215
BEESAT 2 28 May 04:48:51 04:52:04 22° 249° (WSW) 04:55:09 435.950
Gurwin Techsat 1B 28 May 04:48:52 04:53:14 26° 290° (WNW) 04:57:30 435.225
SO-50 28 May 05:07:16 05:08:11 10° 317° (NW) 05:08:49 436.795
AO-7 28 May 05:09:33 05:17:48 60° 103° (ESE) 05:26:03 29.400- 29.500
PHONESAT 2.4 28 May 05:11:53 05:14:40 22° 355° (N) 05:17:26 2401.200-2431.200
HORYU 2 28 May 05:21:41 05:26:03 60° 285° (WNW) 05:30:23 437.375
Cosmos 2491 28 May 05:47:06 05:52:22 18° 66° (ENE) 05:58:09 435.465 / 435.565
JAS-2 28 May 06:07:01 06:11:27 28° 289° (WNW) 06:15:56 435.910
VERMONT LUNAR 28 May 06:07:31 06:10:27 32° 18° (NNE) 06:13:22 437.305
MOZHAYETS 4 28 May 06:11:24 06:15:03 22° 265° (W) 06:18:35
CUBESAT XI-V 28 May 06:16:08 06:19:50 25° 72° (ENE) 06:23:40 437.345
ISS 28 May 06:24:04 06:26:58 29° 38° (NE) 06:29:53 145.825
STRAND 1 28 May 06:27:04 06:29:45 15° 67° (ENE) 06:32:41 437.568
CUTE-I 28 May 06:27:09 06:29:43 14° 91° (E) 06:32:37 437.470
YUBILEINY 28 May 06:33:55 06:38:45 17° 83° (E) 06:44:10 435.215
Cubesat XI-IV 28 May 06:46:49 06:50:58 23° 95° (E) 06:55:17 437.490
PHONESAT 2.4 28 May 06:50:26 06:53:25 26° 12° (NNE) 06:56:25 2401.200-2431.200
AO-7 28 May 07:03:24 07:10:08 27° 298° (WNW) 07:16:35 29.400- 29.500
PRISM 28 May 07:07:28 07:11:17 40° 74° (ENE) 07:15:08 437.425
M-CUBED/EXP-1 PRIME 28 May 07:22:33 07:26:30 37° 71° (ENE) 07:30:12 437.505
AUBIESAT-1 28 May 07:29:31 07:33:26 39° 71° (ENE) 07:37:08 437.475
AIST 1 28 May 07:38:00 07:41:05 19° 75° (ENE) 07:44:18
Cosmos 2491 28 May 07:41:32 07:50:22 79° 266° (W) 07:59:07 435.465 / 435.565
VERMONT LUNAR 28 May 07:44:37 07:47:40 43° 212° (SSW) 07:50:43 437.305
CUBESAT XI-V 28 May 07:53:29 07:57:14 24° 265° (W) 08:00:54 437.345
RS-15 28 May 07:55:44 08:04:15 29° 106° (ESE) 08:13:17 29.354- 29.394
ISS 28 May 08:00:53 08:03:15 18° 231° (SW) 08:05:32 145.825
STRAND 1 28 May 08:03:36 08:08:34 52° 260° (W) 08:13:32 437.568
CUTE-I 28 May 08:04:56 08:10:13 57° 286° (WNW) 08:15:27 437.470
BRITE-PL 28 May 08:10:07 08:12:48 14° 88° (E) 08:15:45 437.365/2234.400
YUBILEINY 28 May 08:25:59 08:34:46 78° 277° (W) 08:43:33 435.215
Cubesat XI-IV 28 May 08:26:17 08:31:09 35° 289° (WNW) 08:35:57 437.490
PHONESAT 2.4 28 May 08:28:20 08:31:48 87° 208° (SSW) 08:35:15 2401.200-2431.200
PRISM 28 May 08:45:29 08:46:59 11° 268° (W) 08:48:12 437.425
Cosmos 2504 28 May 08:55:19 08:57:34 12° 83° (E) 09:00:31 435.465 / 435.565
M-CUBED/EXP-1 PRIME 28 May 08:59:04 09:01:25 14° 261° (W) 09:03:28 437.505
DOVE 4 28 May 09:00:05 09:03:04 16° 90° (E) 09:06:10 437.250
CANX-2 28 May 09:00:14 09:02:33 15° 92° (E) 09:05:03 2200.000
CUTE 1.7 + AOD 2 28 May 09:03:39 09:05:53 15° 92° (E) 09:08:19 437.475
AUBIESAT-1 28 May 09:06:11 09:08:18 13° 261° (W) 09:10:07 437.475
AIST 1 28 May 09:15:02 09:18:45 26° 269° (W) 09:22:24
SEEDS 28 May 09:23:24 09:26:30 21° 94° (E) 09:29:42 437.485
COMPASS 1 28 May 09:34:21 09:37:34 22° 95° (E) 09:40:51 437.405
GOMX 1 28 May 09:41:57 09:47:17 81° 103° (ESE) 09:52:15 467.674
Cosmos 2491 28 May 09:43:43 09:46:05 11° 280° (W) 09:47:34 435.465 / 435.565
JUGNU 28 May 09:45:02 09:48:29 16° 167° (SSE) 09:52:00 437.505
AAUSAT CUBESAT 2 28 May 09:45:09 09:48:33 25° 95° (E) 09:52:01 437.432
BRITE-PL 28 May 09:46:19 09:51:49 59° 285° (WNW) 09:57:00 437.365/2234.400
HO-68 28 May 10:01:02 10:08:12 74° 103° (ESE) 10:15:20 435.675
UNISAT 6 28 May 10:03:05 10:04:55 13° 68° (ENE) 10:07:00 437.425
CINEMA 3 28 May 10:04:11 10:08:28 37° 97° (E) 10:12:36 145.822/145.860
DELFI C3 28 May 10:04:50 10:06:16 12° 92° (E) 10:07:55 145.870
RS-15 28 May 10:05:10 10:15:57 64° 303° (WNW) 10:26:57 29.354- 29.394
PHONESAT 2.4 28 May 10:08:01 10:09:35 12° 219° (SW) 10:11:03 2401.200-2431.200
PCSat 28 May 10:18:21 10:23:20 37° 59° (ENE) 10:28:20 145.827
YUBILEINY 28 May 10:30:16 10:33:20 11° 298° (WNW) 10:35:34 435.215
CANX-2 28 May 10:34:49 10:38:37 33° 286° (WNW) 10:42:22 2200.000
DOVE 4 28 May 10:36:23 10:41:07 41° 287° (WNW) 10:45:32 437.250
CUTE 1.7 + AOD 2 28 May 10:38:07 10:41:57 34° 286° (WNW) 10:45:43 437.475
POPSAT HIP 1 28 May 10:39:56 10:41:38 13° 69° (ENE) 10:43:35 437.405
DUCHIFAT 1 28 May 10:40:44 10:42:22 12° 69° (ENE) 10:44:15 145.980
Cosmos 2504 28 May 10:41:46 10:50:14 86° 96° (E) 10:58:09 435.465 / 435.565
ZACube-1 28 May 10:42:04 10:45:44 28° 96° (E) 10:49:23 437.345
UKube-1 28 May 10:43:11 10:44:13 11° 91° (E) 10:45:33 .
ANTELSAT 28 May 10:43:48 10:48:05 36° 74° (ENE) 10:52:22 437.575/2403.000
CUBEBUG 2 28 May 10:46:13 10:50:32 55° 99° (E) 10:54:41 437.445
Oscar 11 28 May 10:50:47 10:55:05 73° 101° (E) 10:59:22 145.826/435.025
DX 1 28 May 10:52:33 10:55:16 17° 93° (E) 10:58:10 434.975-435.025
BUGSAT 1 28 May 10:57:19 10:59:01 13° 69° (ENE) 11:00:57 437.445
SEEDS 28 May 10:58:52 11:02:15 24° 288° (WNW) 11:05:34 437.485
SRMSAT 28 May 11:05:29 11:08:16 14° 165° (SSE) 11:11:10 437.500
COMPASS 1 28 May 11:09:54 11:13:10 22° 288° (WNW) 11:16:20 437.405
VELOX 1 28 May 11:12:47 11:14:52 13° 92° (E) 11:17:12 145.980
TIGRISAT 28 May 11:15:28 11:20:10 83° 80° (E) 11:24:51 435.000
AAUSAT CUBESAT 2 28 May 11:21:00 11:24:02 19° 288° (WNW) 11:26:56 437.432
QB50P1 28 May 11:21:21 11:25:19 40° 74° (ENE) 11:29:22 145.935-145.965
POLYITAN 1 28 May 11:24:03 11:28:08 44° 75° (ENE) 11:32:16 437.675
GOMX 1 28 May 11:24:06 11:24:40 10° 295° (WNW) 11:24:52 467.674
UWE-3 28 May 11:30:36 11:34:49 51° 285° (WNW) 11:38:54 435.000/436.395/437.385
JUGNU 28 May 11:32:21 11:36:55 23° 176° (S) 11:41:30 437.505
FUNcube-1 28 May 11:36:40 11:40:53 58° 284° (WNW) 11:44:59 145.935
UNISAT 6 28 May 11:36:42 11:41:18 54° 260° (W) 11:45:52 437.425
DELFI C3 28 May 11:37:50 11:41:34 37° 286° (WNW) 11:45:16 145.870
CINEMA 3 28 May 11:42:26 11:45:21 16° 291° (WNW) 11:48:01 145.822/145.860
AISAT 28 May 11:43:20 11:47:22 33° 97° (E) 11:51:26 437.250
HO-68 28 May 11:50:40 11:55:18 18° 298° (WNW) 11:59:35 435.675
NANOSAT C BR1 28 May 11:51:49 11:56:04 84° 258° (WSW) 12:00:23 145.865
SO-50 28 May 11:58:37 12:02:41 25° 52° (NE) 12:06:46 436.795
HUMSAT D 28 May 11:59:51 12:03:59 70° 283° (WNW) 12:08:02 437.325/437.525
CUSAT 1 28 May 12:00:45 12:04:51 17° 83° (E) 12:09:46 437.405
QB50P2 28 May 12:01:00 12:05:14 61° 259° (W) 12:09:30 145.880/145.840
PCSat 28 May 12:02:16 12:06:34 24° 253° (WSW) 12:10:43 145.827
POPSAT HIP 1 28 May 12:13:03 12:17:09 44° 261° (W) 12:21:17 437.405
DUCHIFAT 1 28 May 12:13:45 12:17:50 45° 261° (W) 12:21:56 145.980
UKube-1 28 May 12:16:29 12:20:41 48° 286° (WNW) 12:24:51 .
ZACube-1 28 May 12:18:54 12:21:55 18° 290° (WNW) 12:24:45 437.345
ANTELSAT 28 May 12:21:46 12:24:59 17° 267° (W) 12:27:58 437.575/2403.000
RS-15 28 May 12:24:34 12:31:22 17° 330° (NNW) 12:37:47 29.354- 29.394
CUBEBUG 2 28 May 12:26:06 12:26:45 10° 293° (WNW) 12:27:06 437.445
DX 1 28 May 12:27:40 12:31:38 33° 287° (WNW) 12:35:33 434.975-435.025
BUGSAT 1 28 May 12:30:13 12:34:09 41° 262° (W) 12:38:07 437.445
50 SAT 28 May 12:35:41 12:39:22 42° 285° (WNW) 12:42:59 437.505
Cosmos 2504 28 May 12:40:04 12:44:36 15° 292° (WNW) 12:48:26 435.465 / 435.565
CUBEBUG 1 28 May 12:41:04 12:45:32 79° 102° (ESE) 12:49:57 437.445
VELOX 1 28 May 12:47:25 12:51:40 42° 286° (WNW) 12:55:52 145.980
SRMSAT 28 May 12:52:24 12:56:50 22° 174° (S) 13:01:17 437.500
GONETS M04 28 May 12:55:56 13:03:38 37° 88° (E) 13:11:32
ESTCUBE 1 28 May 12:55:58 13:00:27 60° 284° (WNW) 13:04:55 437.505/2401.250
QB50P1 28 May 12:59:18 13:01:25 13° 268° (W) 13:03:17 145.935-145.965
POLYITAN 1 28 May 13:02:34 13:04:19 12° 269° (W) 13:05:48 437.675
SPROUT 28 May 13:14:13 13:18:23 46° 99° (E) 13:22:32 437.525
DANDE 28 May 13:18:53 13:25:32 56° 92° (E) 13:33:37 436.750
AISAT 28 May 13:20:38 13:23:44 18° 290° (WNW) 13:26:40 437.250
JUGNU 28 May 13:20:55 13:25:23 22° 186° (S) 13:29:48 437.505
Oscar 19 28 May 13:21:16 13:25:36 28° 71° (ENE) 13:30:03 437.125/150
TISAT 1 28 May 13:31:30 13:35:41 53° 100° (E) 13:39:49 437.305
SO-50 28 May 13:38:51 13:43:16 32° 248° (WSW) 13:47:32 436.795
CUSAT 1 28 May 13:39:23 13:46:31 81° 279° (W) 13:54:51 437.405
ITAMSAT 1 28 May 13:41:47 13:43:20 12° 66° (ENE) 13:45:13 435.822/435.867
SWISSCUBE 28 May 13:48:11 13:49:46 12° 91° (E) 13:51:40 437.505
Gurwin Techsat 1B 28 May 14:25:23 14:30:00 32° 71° (ENE) 14:34:43 435.225
SRMSAT 28 May 14:40:53 14:45:27 23° 184° (S) 14:49:59 437.500
O/OREOS (USA 219) 28 May 14:51:38 14:54:22 17° 102° (ESE) 14:57:18 437.305
GONETS M04 28 May 14:52:09 15:00:23 41° 284° (WNW) 15:08:31
SPROUT 28 May 14:52:16 14:54:06 12° 291° (WNW) 14:55:42 437.525
Oscar 19 28 May 15:00:28 15:04:54 27° 264° (W) 15:09:15 437.125/150
DANDE 28 May 15:03:23 15:09:24 26° 293° (WNW) 15:15:57 436.750
Cosmos 2499 28 May 15:06:59 15:14:44 48° 92° (E) 15:22:02 435.465 / 435.565
ITUPSAT 1 28 May 15:07:48 15:12:37 89° 113° (ESE) 15:17:25 437.325
TISAT 1 28 May 15:10:07 15:11:02 10° 292° (WNW) 15:11:41 437.305
JUGNU 28 May 15:10:54 15:13:47 14° 195° (SSW) 15:16:34 437.505
BEESAT 28 May 15:14:28 15:19:15 75° 283° (WNW) 15:24:00 436.000
ITAMSAT 1 28 May 15:17:11 15:22:20 70° 259° (W) 15:27:30 435.822/435.867
SWISSCUBE 28 May 15:23:20 15:28:00 54° 285° (WNW) 15:32:39 437.505
CUSAT 1 28 May 15:26:44 15:30:48 14° 299° (WNW) 15:34:26 437.405
STARS 28 May 15:52:52 15:56:33 26° 96° (E) 16:00:16 437.465
AO-7 28 May 16:03:21 16:11:18 54° 69° (ENE) 16:19:21 29.400- 29.500
Gurwin Techsat 1B 28 May 16:05:38 16:10:01 25° 265° (W) 16:14:16 435.225
JAS-2 28 May 16:12:28 16:19:14 66° 75° (ENE) 16:25:13 435.910
HORYU 2 28 May 16:15:02 16:19:30 70° 76° (ENE) 16:23:58 437.375
KKS-1 28 May 16:28:35 16:33:02 66° 284° (WNW) 16:37:25 437.445
O/OREOS (USA 219) 28 May 16:29:25 16:33:33 34° 294° (WNW) 16:37:39 437.305
SRMSAT 28 May 16:30:33 16:34:01 16° 193° (SSW) 16:37:25 437.500
RS-15 28 May 17:00:15 17:09:25 27° 41° (NE) 17:19:16 29.354- 29.394
Cosmos 2499 28 May 17:01:19 17:08:07 27° 286° (WNW) 17:14:18 435.465 / 435.565
BEESAT 2 28 May 17:01:35 17:03:30 13° 110° (ESE) 17:05:40 435.950
STARS 28 May 17:29:27 17:32:53 22° 289° (WNW) 17:36:10 437.465
CUTE-I 28 May 17:44:50 17:47:45 16° 67° (ENE) 17:50:57 437.470
BEESAT 3 28 May 17:46:01 17:50:00 63° 116° (ESE) 17:54:04 437.485
AO-7 28 May 17:57:34 18:04:28 28° 264° (W) 18:11:08 29.400- 29.500
JAS-2 28 May 18:00:34 18:04:38 16° 267° (W) 18:08:04 435.910
Cubesat XI-IV 28 May 18:04:34 18:08:46 25° 70° (ENE) 18:13:06 437.490
MOZHAYETS 4 28 May 18:09:56 18:14:29 67° 284° (WNW) 18:19:00
BEESAT 2 28 May 18:37:26 18:41:17 39° 302° (WNW) 18:45:11 435.950
AIST 2 28 May 18:38:27 18:42:31 49° 115° (ESE) 18:46:41 435.215
YUBILEINY 28 May 18:42:16 18:50:21 43° 76° (ENE) 18:58:31 435.215
Cosmos 2491 28 May 18:42:28 18:48:50 24° 85° (E) 18:55:38 435.465 / 435.565
